Погода в Покрове

Россия / Ярославская область     57°59′41″N   38°45′07″E
темп.,
°C
ветер,
м/с
пор.,
м/с
влажн.,
%
обл.,
%
осадки,
мм/ч
давл.,
гПа
погр.,
м
2 июля, сб
сб200:00+11ссз11765 0.0 102310
03:00+11зсз227589 0.0 102311
06:00+14зсз257336 0.0 1023148
09:00+19сз35502 0.0 1022550
12:00+23ссз453761 0.0 1021904
15:00+25ссз363638 0.0 10191023
18:00+26зсз37455 0.0 10171149
21:00+19з367661 0.0 1016113
3 июля, вс
вс300:00+17сз348520 0.0 101663
03:00+15с34905 0.0 101774
06:00+17св25814 0.0 1017196
09:00+22всв34570 0.0 1017808
12:00+24с34480 0.0 10171482
15:00+25ссз44465 0.0 10171306
18:00+23ссз3453100 0.0 1016431
21:00+18с117222 0.0 101711
4 июля, пн
пн400:00+16св007521 0.0 101711
03:00+15юз11826 0.0 101711
06:00+18зюз11730 0.0 101756
09:00+24зсз11520 0.0 1017565
12:00+27ссз22420 0.0 10161765
15:00+28с33395 0.0 10151646
18:00+27с12430 0.0 1015456
21:00+20ююв11641 0.0 101511
5 июля, вт
вт500:00+18ююз117667 0.0 101511
03:00+16зюз24939 0.4 101668
06:00+19ююз118589 0.0 101567
09:00+25юз345837 0.0 1015673
12:00+27ююз334769 0.0 10141525
15:00+26юз345383 0.1 1013687
18:00+27юз23483 0.1 10121538
21:00+21ю348398 0.9 101273
6 июля, ср
ср600:00+17ююз3896100 1.9 1013198
03:00+16юз2597100 2.6 1012104
06:00+18юз249497 0.0 1012130
09:00+21зюз1284100 0.0 1012202
12:00+20сз128776 2.5 101366
15:00+23ссз327123 3.1 1012678
18:00+19ссз248960 2.4 1012174
21:00+17ссв118779 2.7 101111